Tracking 30260 objects as of 14-Feb-2025
HD Live streaming from Space Station
objects crossing your sky now

NOAA 17 DEB

Track NOAA 17 DEB now!
10-day predictions


NORAD ID: 48725
Int'l Code: 2002-032BK
Perigee: 731.2 km
Apogee: 829.1 km
Inclination: 98.7 °
Period: 100.3 minutes
Semi major axis: 7151 km
RCS: Unknown
Launch date: June 24, 2002
Source: United States (US)
Launch site: AIR FORCE WESTERN TEST RANGE (AFWTR)

Note: This is SATELLITE DEBRIS
Your satellite tracking list
Your tracking list is empty




NASA's NSSDC Master Catalog

Two Line Element Set (TLE):
1 48725U 02032BJ  25039.27534923  .00018254  00000-0  61634-2 0  9999
2 48725  98.7004 334.8112 0068470  15.4535 344.8720 14.35618754201506
Source of the keplerian elements: AFSPC